Find Starlink 36942

NORAD ID: 68030 Int'l Des: 2026-040 Owner: SPXS Country: US Constellation: starlink operational
LEOCIRCULARRETROGRADE

实时位置

正在加载3D地球...

关于 Starlink 36942

正在加载描述...

即将过境

Passes for default location (London). Set your location on the main map for personalized predictions.

高度历史

Loading altitude history...

两行轨道根数

1 68030U 26040R 26106.79855907 .00013010 00000-0 39392-3 0 9998
2 68030 97.2870 56.3564 0002702 100.3125 259.8423 15.34294339 7300
Epoch: Apr 16, 2026 • Age: 23 hours

当前状态

高度 468.1 km
速度 7.63 km/s
星下点 -10.54°S, 121.47°E
发射日期 Mar 1, 2026
运行时间 0.1 years
类型 internet

技术详情

分类 Payload
质量 575.00 kg
干质量 530.00 kg
总质量 575.00 kg
长度 0.30 m
直径 4.10 m
跨度 29.00 m
形状 Box + pan
制造商 SPXS
平台类型 Starlink V2MO
阶段状态 In Orbit
所有者/国家 SPXS/US

Most Searched